Time,TemperatureF,DewpointF,PressureIn,WindDirection,WindDirectionDegrees,WindSpeedMPH,WindSpeedGustMPH,Humidity,HourlyPrecipIn,Conditions,Clouds,dailyrainin,SoftwareType,DateUTC
2013-08-31 00:12:00,73.0,58.0,29.88,NW,317,0.0,-999.0,59,-99.99,,,-99.99,,2013-08-31 07:12:00,
2013-08-31 00:22:00,72.0,57.0,29.89,NW,317,0.0,-999.0,60,-99.99,,,-99.99,,2013-08-31 07:22:00,
2013-08-31 00:42:00,72.0,58.0,29.89,NW,317,0.0,-999.0,61,-99.99,,,-99.99,,2013-08-31 07:42:00,
2013-08-31 00:52:00,71.0,58.0,29.89,NW,317,0.0,-999.0,64,-99.99,,,-99.99,,2013-08-31 07:52:00,
2013-08-31 01:12:00,70.0,57.0,29.89,NW,317,0.0,-999.0,64,-99.99,,,-99.99,,2013-08-31 08:12:00,
2013-08-31 01:22:00,70.0,57.0,29.89,NW,317,0.0,-999.0,63,-99.99,,,-99.99,,2013-08-31 08:22:00,
2013-08-31 01:42:00,69.0,57.0,29.89,NW,317,0.0,-999.0,66,-99.99,,,-99.99,,2013-08-31 08:42:00,
2013-08-31 01:52:00,69.0,58.0,29.88,NW,317,0.0,-999.0,67,-99.99,,,-99.99,,2013-08-31 08:52:00,
2013-08-31 02:12:00,68.0,57.0,29.88,NW,317,0.0,-999.0,68,-99.99,,,-99.99,,2013-08-31 09:12:00,
2013-08-31 02:23:00,67.0,57.0,29.88,NW,317,0.0,-999.0,70,-99.99,,,-99.99,,2013-08-31 09:23:00,
2013-08-31 02:53:00,67.0,57.0,29.88,NW,317,0.0,-999.0,71,-99.99,,,-99.99,,2013-08-31 09:53:00,
2013-08-31 03:12:00,66.0,57.0,29.88,NW,317,0.0,-999.0,72,-99.99,,,-99.99,,2013-08-31 10:12:00,
2013-08-31 03:23:00,66.0,57.0,29.88,NW,317,0.0,-999.0,74,-99.99,,,-99.99,,2013-08-31 10:23:00,
2013-08-31 03:43:00,65.0,56.0,29.88,NW,317,0.0,-999.0,73,-99.99,,,-99.99,,2013-08-31 10:43:00,
2013-08-31 03:53:00,65.0,56.0,29.88,NW,317,0.0,-999.0,74,-99.99,,,-99.99,,2013-08-31 10:53:00,
2013-08-31 04:12:00,65.0,56.0,29.88,NW,317,0.0,-999.0,74,-99.99,,,-99.99,,2013-08-31 11:12:00,
2013-08-31 04:21:00,65.0,56.0,29.88,NW,317,0.0,-999.0,74,-99.99,,,-99.99,,2013-08-31 11:21:00,
2013-08-31 04:52:00,64.0,56.0,29.88,NW,317,0.0,-999.0,74,-99.99,,,-99.99,,2013-08-31 11:52:00,
2013-08-31 05:11:00,64.0,56.0,29.88,NW,317,0.0,-999.0,75,-99.99,,,-99.99,,2013-08-31 12:11:00,
2013-08-31 05:21:00,63.0,56.0,29.88,NW,317,0.0,-999.0,77,-99.99,,,-99.99,,2013-08-31 12:21:00,
2013-08-31 05:42:00,63.0,56.0,29.88,NW,317,0.0,-999.0,77,-99.99,,,-99.99,,2013-08-31 12:42:00,
2013-08-31 05:52:00,63.0,56.0,29.88,NW,317,0.0,-999.0,78,-99.99,,,-99.99,,2013-08-31 12:52:00,
2013-08-31 06:11:00,63.0,56.0,29.88,NW,317,0.0,-999.0,79,-99.99,,,-99.99,,2013-08-31 13:11:00,
2013-08-31 06:22:00,64.0,57.0,29.88,NW,317,0.0,-999.0,77,-99.99,,,-99.99,,2013-08-31 13:22:00,
2013-08-31 06:42:00,64.0,57.0,29.89,NW,317,0.0,-999.0,77,-99.99,,,-99.99,,2013-08-31 13:42:00,
2013-08-31 06:52:00,64.0,57.0,29.89,NW,317,0.0,-999.0,77,-99.99,,,-99.99,,2013-08-31 13:52:00,
2013-08-31 07:11:00,64.0,57.0,29.89,NW,317,0.0,-999.0,78,-99.99,,,-99.99,,2013-08-31 14:11:00,
2013-08-31 07:21:00,63.0,56.0,29.90,NW,317,0.0,-999.0,78,-99.99,,,-99.99,,2013-08-31 14:21:00,
2013-08-31 07:52:00,65.0,56.0,29.90,NW,317,0.0,-999.0,74,-99.99,,,-99.99,,2013-08-31 14:52:00,
2013-08-31 08:11:00,67.0,56.0,29.91,NW,317,0.0,-999.0,67,-99.99,,,-99.99,,2013-08-31 15:11:00,
2013-08-31 08:22:00,68.0,55.0,29.90,NW,319,0.0,-999.0,64,-99.99,,,-99.99,,2013-08-31 15:22:00,
2013-08-31 08:55:00,71.0,58.0,29.91,NNW,338,0.0,-999.0,63,-99.99,,,-99.99,,2013-08-31 15:55:00,
2013-08-31 09:13:00,72.0,59.0,29.91,North,10,0.0,-999.0,63,-99.99,,,-99.99,,2013-08-31 16:13:00,
2013-08-31 09:25:00,72.0,58.0,29.91,NE,51,0.0,-999.0,61,-99.99,,,-99.99,,2013-08-31 16:25:00,
2013-08-31 09:44:00,73.0,58.0,29.91,NE,51,0.0,-999.0,60,-99.99,,,-99.99,,2013-08-31 16:44:00,
2013-08-31 09:52:00,74.0,58.0,29.91,East,101,0.0,-999.0,58,-99.99,,,-99.99,,2013-08-31 16:52:00,
2013-08-31 10:12:00,75.0,58.0,29.91,East,101,0.0,-999.0,56,-99.99,,,-99.99,,2013-08-31 17:12:00,
2013-08-31 10:23:00,77.0,59.0,29.91,East,101,0.0,-999.0,53,-99.99,,,-99.99,,2013-08-31 17:23:00,
2013-08-31 10:42:00,78.0,58.0,29.92,East,101,0.0,-999.0,50,-99.99,,,-99.99,,2013-08-31 17:42:00,
2013-08-31 10:53:00,80.0,59.0,29.91,East,90,0.0,-999.0,49,-99.99,,,-99.99,,2013-08-31 17:53:00,
2013-08-31 11:12:00,81.0,58.0,29.91,East,90,0.0,-999.0,46,-99.99,,,-99.99,,2013-08-31 18:12:00,
2013-08-31 11:21:00,82.0,58.0,29.91,ESE,111,0.0,-999.0,44,-99.99,,,-99.99,,2013-08-31 18:21:00,
2013-08-31 11:42:00,83.0,59.0,29.91,ESE,111,0.0,-999.0,45,-99.99,,,-99.99,,2013-08-31 18:42:00,
2013-08-31 11:52:00,83.0,59.0,29.91,SE,130,0.0,-999.0,44,-99.99,,,-99.99,,2013-08-31 18:52:00,
2013-08-31 12:12:00,84.0,60.0,29.90,SE,130,0.0,-999.0,44,-99.99,,,-99.99,,2013-08-31 19:12:00,
2013-08-31 12:21:00,85.0,59.0,29.90,SE,136,0.0,-999.0,41,-99.99,,,-99.99,,2013-08-31 19:21:00,
2013-08-31 12:42:00,85.0,59.0,29.89,SE,136,0.0,-999.0,41,-99.99,,,-99.99,,2013-08-31 19:42:00,
2013-08-31 12:52:00,86.0,58.0,29.89,SE,136,0.0,-999.0,39,-99.99,,,-99.99,,2013-08-31 19:52:00,
2013-08-31 13:12:00,87.0,58.0,29.89,SSW,211,0.0,-999.0,37,-99.99,,,-99.99,,2013-08-31 20:12:00,
2013-08-31 13:22:00,88.0,58.0,29.88,SW,225,0.0,-999.0,36,-99.99,,,-99.99,,2013-08-31 20:22:00,
2013-08-31 13:42:00,89.0,58.0,29.88,WSW,244,0.0,-999.0,35,-99.99,,,-99.99,,2013-08-31 20:42:00,
2013-08-31 13:52:00,89.0,56.0,29.88,West,269,0.0,-999.0,33,-99.99,,,-99.99,,2013-08-31 20:52:00,
2013-08-31 14:12:00,90.0,59.0,29.87,West,279,0.0,-999.0,35,-99.99,,,-99.99,,2013-08-31 21:12:00,
2013-08-31 14:22:00,90.0,57.0,29.87,WSW,255,0.0,-999.0,33,-99.99,,,-99.99,,2013-08-31 21:22:00,
2013-08-31 14:54:00,91.0,56.0,29.85,WNW,298,0.0,-999.0,31,-99.99,,,-99.99,,2013-08-31 21:54:00,
2013-08-31 15:13:00,92.0,49.0,29.85,WNW,292,0.0,-999.0,23,-99.99,,,-99.99,,2013-08-31 22:13:00,
2013-08-31 15:23:00,92.0,53.0,29.85,WNW,290,0.0,-999.0,27,-99.99,,,-99.99,,2013-08-31 22:23:00,
2013-08-31 15:43:00,92.0,51.0,29.84,West,280,0.0,-999.0,25,-99.99,,,-99.99,,2013-08-31 22:43:00,
2013-08-31 15:53:00,92.0,50.0,29.83,NW,308,0.0,-999.0,24,-99.99,,,-99.99,,2013-08-31 22:53:00,
2013-08-31 16:22:00,92.0,50.0,29.83,West,273,0.0,-999.0,24,-99.99,,,-99.99,,2013-08-31 23:22:00,
2013-08-31 16:52:00,92.0,48.0,29.82,West,269,1.0,-999.0,22,-99.99,,,-99.99,,2013-08-31 23:52:00,
2013-08-31 17:11:00,92.0,51.0,29.82,West,267,0.0,-999.0,25,-99.99,,,-99.99,,2013-09-01 00:11:00,
2013-08-31 17:21:00,92.0,52.0,29.81,West,266,0.0,-999.0,26,-99.99,,,-99.99,,2013-09-01 00:21:00,
2013-08-31 17:42:00,91.0,50.0,29.81,West,259,0.0,-999.0,25,-99.99,,,-99.99,,2013-09-01 00:42:00,
2013-08-31 17:52:00,91.0,50.0,29.81,WSW,242,0.0,-999.0,25,-99.99,,,-99.99,,2013-09-01 00:52:00,
2013-08-31 18:11:00,91.0,51.0,29.81,WSW,248,0.0,-999.0,26,-99.99,,,-99.99,,2013-09-01 01:11:00,
2013-08-31 18:21:00,90.0,49.0,29.81,SW,223,0.0,-999.0,25,-99.99,,,-99.99,,2013-09-01 01:21:00,
2013-08-31 18:42:00,89.0,52.0,29.82,SSW,211,0.0,-999.0,28,-99.99,,,-99.99,,2013-09-01 01:42:00,
2013-08-31 18:52:00,88.0,50.0,29.82,SW,217,0.0,-999.0,27,-99.99,,,-99.99,,2013-09-01 01:52:00,
2013-08-31 19:12:00,87.0,47.0,29.81,SW,217,0.0,-999.0,25,-99.99,,,-99.99,,2013-09-01 02:12:00,
2013-08-31 19:22:00,87.0,50.0,29.81,SW,217,0.0,-999.0,28,-99.99,,,-99.99,,2013-09-01 02:22:00,
2013-08-31 19:42:00,86.0,52.0,29.81,SW,217,0.0,-999.0,31,-99.99,,,-99.99,,2013-09-01 02:42:00,
2013-08-31 19:53:00,84.0,53.0,29.81,SW,216,0.0,-999.0,34,-99.99,,,-99.99,,2013-09-01 02:53:00,
2013-08-31 20:22:00,81.0,56.0,29.82,SW,217,0.0,-999.0,42,-99.99,,,-99.99,,2013-09-01 03:22:00,
2013-08-31 20:54:00,79.0,54.0,29.83,NNE,19,0.0,-999.0,42,-99.99,,,-99.99,,2013-09-01 03:54:00,
2013-08-31 21:03:00,-999.0,-99.9,29.83,SSE,163,0.0,-999.0,-999,-99.99,,,-99.99,,2013-09-01 04:03:00,
2013-08-31 21:14:00,78.0,53.0,29.83,SSE,163,0.0,-999.0,42,-99.99,,,-99.99,,2013-09-01 04:14:00,
2013-08-31 21:24:00,77.0,51.0,29.84,SSE,168,0.0,-999.0,41,-99.99,,,-99.99,,2013-09-01 04:24:00,
2013-08-31 21:54:00,77.0,51.0,29.84,SE,138,0.0,-999.0,41,-99.99,,,-99.99,,2013-09-01 04:54:00,
2013-08-31 22:12:00,76.0,51.0,29.85,SE,139,0.0,-999.0,41,-99.99,,,-99.99,,2013-09-01 05:12:00,
2013-08-31 22:22:00,76.0,50.0,29.85,SE,139,0.0,-999.0,40,-99.99,,,-99.99,,2013-09-01 05:22:00,
2013-08-31 22:52:00,75.0,51.0,29.85,SE,145,0.0,-999.0,43,-99.99,,,-99.99,,2013-09-01 05:52:00,
2013-08-31 23:12:00,74.0,51.0,29.85,SE,145,0.0,-999.0,45,-99.99,,,-99.99,,2013-09-01 06:12:00,
2013-08-31 23:22:00,74.0,52.0,29.85,SE,145,0.0,-999.0,46,-99.99,,,-99.99,,2013-09-01 06:22:00,
2013-08-31 23:42:00,73.0,52.0,29.86,SE,145,0.0,-999.0,47,-99.99,,,-99.99,,2013-09-01 06:42:00,
2013-08-31 23:52:00,73.0,53.0,29.86,SE,145,0.0,-999.0,49,-99.99,,,-99.99,,2013-09-01 06:52:00,